Location: Alpine
(43.1636°N, 111.0180°W)
Time: 04:23:22
(UTC+00:00)

Tiros 1 despin weight - Pass Details

Date: 30 May 2022
Orbit: 591 x 639 km, 48.2° (Epoch: 30 June)

Event Time Altitude Azimuth Distance (km) Brightness Sun altitude
Rises 02:23:21 0° 274° (W) 2,874 ? 4.2°
Reaches altitude 10° 02:25:46 10° 281° (W) 1,961 ? 3.8°
Maximum altitude 02:30:05 44° 355° (N) 836 ? 3.1°
Drops below altitude 10° 02:34:20 10° 68° (ENE) 1,936 ? 2.4°
Sets 02:36:42 0° 75° (ENE) 2,833 ? 2.0°
